sat.trackr.live / text

‹ back to catalog

STARLINK-35950

NORAD 66622 · 2025-271F

PAYLOAD ACTIVE UNKNOWN

§ Identity

Operator
Country
US
Launch date
2025-11-23
Launch site
AFWTR
Launch vehicle
Mass (kg)
RCS (m²)

Purposes: comms

External: N2YO · Heavens-Above · Gunter

§ Orbital elements

Epoch: 2026-09-20T10:14:51.000288Z

Period
93.85 min
Inclination
53.1574°
Eccentricity
0.0001367
Mean motion
15.34387244 rev/d
Perigee alt
461.8 km
Apogee alt
463.7 km
Semi-major
6,840.9 km
B*
7.9983e-5
RAAN
313.8572°
Arg perigee
81.3291°
Mean anomaly
278.7866°
Rev number
4,740

§ Raw data

STARLINK-359501 66622U 25271F   26263.42697917  .00002326  00000+0  79983-4 0  99952 66622  53.1574 313.8572 0001367  81.3291 278.7866 15.34387244 47409

JSON: /api/v1/satellites/66622 · /tle

For live sub-satellite position, see the globe view (requires WebGL).

§ Visibility from observer

Set your observer location to see the next 7 days of passes ≥ 10°. The values pass through the URL so the page stays shareable.

No JS? Fill the form by hand. The geolocation button needs JavaScript.